Showing default

FLOCK 4H 36, 66739

Orbit data source: Space-Track

FLOCK 4H 36, 66739 is a payload satellite owned by Planet (US) in SSO that was launched on Fri, 28 Nov 2025 UTC via an FALCON 9 launch vehicle from the Air Force Western Test Range (AFWTR). Payload-class satellites include a variety of spacecraft equipped with specific instruments for various scientific and technological missions. These include communications satellites like Starlink; space stations such as the ISS; scientific satellites like the Hubble; Earth observation satellites from companies like Planet Labs, Umbra, and HawkEye 360; GPS; miniature CubeSats for education and research; and military/defense satellites.

Loading next visibility...
Identifier
66739, 2025-276CB
Orbit
SSO
Country
Flag of USUS
Related business
Manufacturer
Planet
Mission
Operational Commercial Imaging
Bus & Motor
CUBESAT 3U, Unknown motor
Mass
5.7 kg wet, 5.7 kg dry
Launch date (UTC)
2025-11-28 (6 months ago)
Launch vehicle
FALCON 9
Launch site
Air Force Western Test Range (AFWTR)
Object type
Payload
Rocket body
Debris
Shape & HBR
Box + 2 Pan, 1.0 m
Radar Cross Section
0.072 m²

Expand to show TLE details & history
Last TLE update: 11 hours ago

TLE from 11 hours ago
0 FLOCK 4H 36
1 66739U 25276CB  26144.76610631  .00004839  00000-0  22710-3 0  9999
2 66739  97.4249 218.9501 0003693  63.3737 296.7876 15.20110552 26874
Epoch: 2026-05-24T18:23Z
TLE epoch observation values (Epoch: 2026-05-24T18:23:11.585Z)
Latitude
-0.00001°
Longitude
60.78829°
Altitude
507.452 km
Speed
7.611 km/s
True Right ascension
14h 35m 48s
True Declination
0° 00' 00"
Sunlit
Object was in full shadow at epoch
Visualization orbit readout
Latitude
Unknown
Longitude
Unknown
Altitude
Unknown
Speed
Unknown
Apparent Right ascension
Unknown
Apparent Declination
Unknown
Sunlit
N/A
Visualization observer readout
Local Sidereal Time
14:50:25
Azimuth
Unknown
Elevation
Unknown
Doppler factor
Unknown
Orbital elements
Apogee altitude
505.014 km
Perigee altitude
499.932 km
Semi-major axis
6,880.61 km
Eccentricity
0.00037
Inclination
97.4249°
RAAN
218.9501°
Arg. of periapsis
63.3737°
True anomaly
296.74981°
Mean anomaly
296.7876°
Eccentric anomaly
296.76871°
Mean motion
3.80279 °/min
Orbital period
94.67 mins
BSTAR
0.0002271
Loading maneuver chart data...
Computing Atmospheric mass density...
Loading historical data...
Loading historical data...
Loading historical data...
Loading historical data...
Loading historical data...
Loading historical data...
Loading historical data...

Documentation

Showing up to 5 results
|